This is the latest recevied weather packets stored in our database for station/object N7WSS. If no packets are shown the sender has not sent any weather packets the latest 10 day(s).
| Time | Temp. | Humidity | Pressure | Rain* | Wind** | Luminosity | Snow |
|---|---|---|---|---|---|---|---|
| 1788444909 | 24.44° C | 69% | 1015.6 hPa | 0 mm | - | - | - |
| 1788444604 | 24.44° C | 71% | 1015.6 hPa | 0 mm | - | - | - |
| 1788444300 | 24.44° C | 75% | 1015.4 hPa | 0 mm | - | - | - |
| 1788444000 | 24.44° C | 74% | 1015.3 hPa | 0 mm | - | - | - |
| 1788443695 | 24.44° C | 73% | 1015.6 hPa | 0 mm | - | - | - |
| 1788443390 | 24.44° C | 71% | 1015.3 hPa | 0 mm | - | - | - |
| 1788443089 | 24.44° C | 70% | 1015.4 hPa | 0 mm | - | - | - |
| 1788442786 | 24.44° C | 70% | 1015.3 hPa | 0 mm | - | - | - |
| 1788442484 | 24.44° C | 71% | 1015.1 hPa | 0 mm | - | - | - |
| 1788442184 | 24.44° C | 71% | 1015.3 hPa | 0 mm | - | - | - |
| 1788441880 | 24.44° C | 72% | 1015.1 hPa | 0 mm | - | - | - |
| 1788441579 | 23.89° C | 72% | 1014.9 hPa | 0 mm | - | - | - |
| 1788441275 | 23.89° C | 74% | 1014.8 hPa | 0 mm | - | - | - |
| 1788440973 | 23.89° C | 75% | 1015 hPa | 0 mm | - | - | - |
| 1788440669 | 23.89° C | 75% | 1014.8 hPa | 0 mm | - | - | - |
| 1788440367 | 23.89° C | 75% | 1014.7 hPa | 0 mm | - | - | - |
| 1788440067 | 23.89° C | 74% | 1014.5 hPa | 0 mm | - | - | - |
| 1788439766 | 23.89° C | 74% | 1014.5 hPa | 0 mm | - | - | - |
| 1788439473 | 23.89° C | 74% | 1014.7 hPa | 0 mm | - | - | - |
| 1788439161 | 23.89° C | 74% | 1014.7 hPa | 0 mm | - | - | - |
| 1788438856 | 23.89° C | 74% | 1014.3 hPa | 0 mm | - | - | - |
| 1788438554 | 24.44° C | 74% | 1014.2 hPa | 0 mm | - | - | - |
| 1788438249 | 24.44° C | 73% | 1014.5 hPa | 0 mm | - | - | - |
| 1788437948 | 24.44° C | 72% | 1014.5 hPa | 0 mm | - | - | - |
| 1788437643 | 23.89° C | 72% | 1014.1 hPa | 0 mm | - | - | - |
* Rain latest hour (hover to see other rain measurements)
** Current wind speed in m/s (hover to see current wind gust speed)